Location: Lussas
(44.6119°N, 4.4726°E)
Time: 15:59:50
(UTC+00:00)

Cosmos 1766 Rocket - Pass Details

Date: 26 November 2020
Orbit: 605 x 633 km, 82.5° (Epoch: 27 January)

Event Time Altitude Azimuth Distance (km) Brightness Sun altitude
Rises 05:35:06 0° 215° (SW) 2,914 6.8 -13.6°
Reaches altitude 10° 05:37:35 10° 226° (SW) 2,013 5.9 -13.2°
Maximum altitude 05:41:28 29° 287° (WNW) 1,180 4.4 -12.6°
Drops below altitude 10° 05:45:22 10° 347° (NNW) 2,026 5.9 -11.9°
Sets 05:47:53 0° 359° (N) 2,937 6.8 -11.5°
